NIMBUS 2 DEB, 28621

Orbit data source: Space-Track

NIMBUS 2 DEB, 28621 is space debris in SSO originally from a launch on Sun, 15 May 1966 UTC launched from the Air Force Western Test Range (AFWTR). Debris objects in space refer to the collection of defunct objects orbiting the Earth. Examples of debris include non-operational satellites, rocket bodies, and fragments generated from explosions, collisions, or faulty payload assembly.

Loading next visibility...
Identifier
28621, 1966-040AM
Orbit
SSO
Country
Flag of USUS
Related business
Manufacturer
Unknown
Mission
Spacecraft
Bus & Motor
Unknown
Mass
Unknown
Launch date (UTC)
1966-05-15 (60 years ago)
Launch vehicle
Unknown
Launch site
Air Force Western Test Range (AFWTR)
Object type
Payload
Rocket body
Debris
Shape & HBR
Unknown shape, 0.1 m
Radar Cross Section
Small (<0.1 m²)

Expand to show TLE details & history
Last TLE update: 16 hours ago

TLE from 16 hours ago
0 NIMBUS 2 DEB
1 28621U 66040AM  25349.51278419  .00007369  00000-0  29886-2 0  9995
2 28621 100.2359 187.3444 0030578   3.8281 356.3123 14.27774584690464
Epoch: 2025-12-15T12:18Z
TLE epoch observation values (Epoch: 2025-12-15T12:18:24.554Z)
Latitude
0.00001°
Longitude
-81.66819°
Altitude
780.146 km
Speed
7.475 km/s
True Right ascension
12h 29m 22s
True Declination
0° 00' 00"
Sunlit
Object was in daylight at epoch
Visualization orbit readout
Latitude
Unknown
Longitude
Unknown
Altitude
Unknown
Speed
Unknown
Apparent Right ascension
Unknown
Apparent Declination
Unknown
Sunlit
N/A
Visualization observer readout
Local Sidereal Time
03:26:41
Azimuth
Unknown
Elevation
Unknown
Doppler factor
Unknown
Orbital elements
Apogee altitude
818.345 km
Perigee altitude
774.469 km
Semi-major axis
7,174.544 km
Eccentricity
0.00306
Inclination
100.2359°
RAAN
187.3444°
Arg. of periapsis
3.8281°
True anomaly
356.28968°
Mean anomaly
356.3123°
Eccentric anomaly
356.301°
Mean motion
3.57151 °/min
Orbital period
100.8 mins
BSTAR
0.0029886
Loading maneuver chart data...
Computing Atmospheric mass density...
Loading historical data...
Loading historical data...
Loading historical data...
Loading historical data...
Loading historical data...
Loading historical data...
Loading historical data...

Documentation

Showing up to 5 results
|